Location: Fort Worth, Tx
(32.7431°N, 97.3695°W)
Time: 07:34:37
(UTC-04:00)

Vanguard 1 Rocket - Pass Details

Date: 27 February 2024
Orbit: 652 x 4219 km, 34.3° (Epoch: 22 April)

Event Time Altitude Azimuth Distance (km) Brightness Sun altitude
Rises 05:45:19 0° 212° (SSW) 8,331 11.9 -29.1°
Reaches altitude 10° 05:51:43 10° 206° (SSW) 7,408 11.7 -27.7°
Maximum altitude 06:14:29 41° 145° (SE) 4,650 11.1 -23.0°
Drops below altitude 10° 06:30:18 10° 83° (E) 5,357 12.5 -19.7°
Sets 06:33:55 0° 76° (ENE) 5,954 13.1 -18.9°
